Regional Weather Roundup
Issued by NWS

Home | Current Version | Previous Version | Text Only | Print | Product List | Glossary On
Versions: 1 2 3 4 5 6 7 8 9 10 11 12 13 14 15 16 17 18 19 20 21 22 23 24 25 26 27 28 29 30 31 32 33 34 35 36 37 38 39 40 41 42 43 44 45 46 47 48 49 50
000
ASUS43 KMKX 010200
RWRWI

WISCONSIN REGIONAL WEATHER ROUNDUP
NATIONAL WEATHER SERVICE MILWAUKEE/SULLIVAN WI
900 PM CDT TUE MAY 31 2016

NOTE: "FAIR" INDICATES FEW OR NO CLOUDS BELOW 12,000 FEET WITH NO
SIGNIFICANT WEATHER AND/OR OBSTRUCTIONS TO VISIBILITY.

WIZ001-002-006>008-014>016-023>028-010300-
NORTHWEST WISCONSIN

CITY           SKY/WX    TMP DP  RH WIND       PRES   REMARKS
SUPERIOR ARPT  CLOUDY    43  40  91 NE10      29.91F
ASHLAND        LGT RAIN  47  46  97 NE6       29.87F
HAYWARD        CLOUDY    61  58  90 SE8       29.87S
SIREN          CLOUDY    67  61  79 S6        29.85S
CUMBERLAND     CLOUDY    61  59  94 SE8       29.88S
RICE LAKE      CLOUDY    62  60  93 SE9       29.89S
CHETEK         CLOUDY    61  61  99 SE6       29.88S
LADYSMITH      CLOUDY    61  60  96 E7        29.90F
EAU CLAIRE     CLOUDY    63  62  97 SE5       29.87S
MENOMONIE      CLOUDY    64  64 100 SE6       29.88S
NEW RICHMOND   CLOUDY    65  59  80 S8        29.87R
OSCEOLA        CLOUDY    67  61  83 SE6       29.87S
$$

WIZ003>005-009-010-017-018-010300-
NORTH CENTRAL WISCONSIN

CITY           SKY/WX    TMP DP  RH WIND       PRES   REMARKS
MANITOWISH WTR RAIN      59  59 100 CALM      29.94F
ARBOR VITAE    RAIN      63  56  78 S5        29.95S
WOODRUFF       RAIN      63  56  78 S5        29.95S
RHINELANDER    CLOUDY    61  55  81 E8        29.95S
EAGLE RIVER    DRIZZLE   60  52  74 SE3       29.95S
LAND O LAKES   CLOUDY    62  53  73 S3        29.96S
PHILLIPS       HVY RAIN  60  60 100 CALM      29.92F
TOMAHAWK       LGT RAIN  60  56  86 CALM      29.94S
MEDFORD        RAIN      60  60 100 CALM      29.91F
MERRILL        CLOUDY    64  58  83 SE5       29.93F
$$

WIZ029-030-035-036-043>047-010300-
CENTRAL WISCONSIN

CITY           SKY/WX    TMP DP  RH WIND       PRES   REMARKS
WAUSAU         CLOUDY    68  59  73 SE9       29.91S
MOSINEE        NOT AVBL
MARSHFIELD     RAIN      62  59  90 SW6       29.91F FOG
STEVENS POINT  CLOUDY    65  59  81 SE5       29.93F
WAUPACA        CLOUDY    68  61  77 E6        29.93F
WAUTOMA        CLOUDY   N/A N/A N/A SE5       29.94R
WISC RAPIDS    LGT RAIN  66  60  81 W8        29.94R
CAMP DOUGLAS   NOT AVBL
$$

WIZ011>013-019>022-031-037>040-048>050-010300-
NORTHEAST WISCONSIN

CITY           SKY/WX    TMP DP  RH WIND       PRES   REMARKS
ANTIGO         CLOUDY    60  56  87 SE12      29.96S
SHAWANO        CLOUDY    64  58  81 CALM      29.96S
OCONTO         CLOUDY    60  60 100 E5        29.97S
STURGEON BAY   CLOUDY    61  48  63 E7        29.99S
GREEN BAY      CLOUDY    62  56  80 E5        29.96S
MANITOWOC      NOT AVBL
APPLETON       CLOUDY    66  57  72 SE10      29.93F
CLINTONVILLE   CLOUDY    64  55  72 CALM      29.95S
OSHKOSH        CLOUDY    66  59  78 SE8       29.93F
$$

WIZ032>034-041-042-053>061-010300-
SOUTHWEST WISCONSIN

CITY           SKY/WX    TMP DP  RH WIND       PRES   REMARKS
LA CROSSE      LGT RAIN  64  62  93 SE8       29.89F
SPARTA         RAIN      62  62 100 SE6       29.92F
VIROQUA        CLOUDY    63  63 100 SE7       29.92S
BOSCOBEL       NOT AVBL
PRAIRIE DU CHI LGT RAIN  64  62  95 CALM      29.90F
PLATTEVILLE    CLOUDY    69  64  86 SE8       29.92R
$$

WIZ056-057-062-063-064-067-068-010300-
SOUTH CENTRAL WISCONSIN

CITY           SKY/WX    TMP DP  RH WIND       PRES   REMARKS
REEDSBURG      CLOUDY    67  62  81 SE5       29.91S
BARABOO/DELLS  LGT RAIN  66  59  78 SE15      29.91S
LONE ROCK      NOT AVBL
MINERAL POINT  CLOUDY    68  63  83 SE8       29.92S
MADISON        CLOUDY    68  59  73 S10       29.93S
MIDDLETON      CLOUDY    69  59  70 S10       29.93S
WATERTOWN      CLOUDY    65  64  97 SE6       29.93S
MONROE         PTCLDY    64  61  88 SE8       29.93F
JANESVILLE     MOCLDY    66  63  88 SE7       29.93S
$$

WIZ051-052-058>065-066-070>072-010300-
SOUTHEAST WISCONSIN

CITY           SKY/WX    TMP DP  RH WIND       PRES   REMARKS
MILWAUKEE      CLOUDY    62  58  86 SE6       29.95F
WAUKESHA       CLOUDY    63  61  94 E3        29.96F
MILWAUKEE/TIMM CLOUDY    63  55  77 E5        29.96S
RACINE         CLOUDY    64  59  83 SE6       29.96F
BURLINGTON     MOCLDY    64  61  91 CALM      29.95S
KENOSHA        CLOUDY    65  60  84 E7        29.95F
FOND DU LAC    LGT RAIN  66  61  84 S7        29.93F
SHEBOYGAN      LGT RAIN  55  49  80 E8        29.96F
WEST BEND      CLOUDY    59  55  88 CALM      29.96R
JUNEAU         CLOUDY    65  60  85 SE7       29.94F
$$

LSZ147-162-010300-
LAKE SUPERIOR

STATION/POSITION TIME  TEMP    WIND        PRES    WAVE
                       AIR SEA DIR/SP/G            HT/PER
                 (UTC) (F)     (DEG/KT/KT) (MB)    (FT/S)
W MID LAKE BUOY  0050   43 38   80/ 14/ 17 1013.2S   4/ 5
DEVILS ISLAND    0100   42      60/ 10/ 12 1013.2F
SAXON HARBOR     0100   50      50/  1/  3 1011.9S
$$

LMZ867-665-643>646-010300-
LAKE MICHIGAN

STATION/POSITION TIME  TEMP    WIND        PRES    WAVE
                       AIR SEA DIR/SP/G            HT/PER
                 (UTC) (F)     (DEG/KT/KT) (MB)    (FT/S)
CHAMBERS ISLAND  0100   62      90/  4/ 11 1015.2F
N MID LAKE BUOY  0050   53 48  100/  8/  8 1015.5R   1
NORTHPORT PIER   0140   57     160/  1/  3 1015.6F
SISTER BAY       0020   60     100/ 12/ 16   N/A
ALGOMA LAKESHORE 0017           50/ 11/ 15   N/A
KEWAUNEE LAKESHO 0100                      1014.7F
SHEBOYGAN LAKESH 0100   51      50/  3/  3 1015.9F
PORT WASHINGTON  0100   55      30/  3/ 10 1015.6F
S MID LAKE BUOY  0050   56 55  360/  4/  4 1015.4R   1/ 3
KENOSHA   LAKESH 0100   60     120/  7/  9 1014.6F
$$

TC  - TEMPERATURE IN CELSIUS
VSB - VISIBILITY IN STATUTE MILES
WCI - WIND CHILL INDEX
HX  - HEAT INDEX





USA.gov is the U.S. government's official web portal to all federal, state and local government web resources and services.